Weather History for Chicago Midway, IL

Change the Weather History Date:

Wednesday, November 28, 2012

  Actual Average Record
Temperature  
Mean Temperature 37 °F 35 °F  
Max Temperature 45 °F 42 °F 69 °F (1998)
Min Temperature 28 °F 29 °F -3 °F (1930)
Degree Days  
Heating Degree Days 28 30  
Month to date heating degree days 638 646  
Since 1 July heating degree days 1080 1077  
Cooling Degree Days 0 0  
Month to date cooling degree days 0 0  
Year to date cooling degree days 1473 1045  
Moisture  
Dew Point 19 °F    
Average Humidity 49    
Maximum Humidity 63    
Minimum Humidity 25    
Precipitation  
Precipitation 0.00 in 0.11 in 1.56 in (1968)
Month to date precipitation 1.00 3.20  
Year to date precipitation 24.78 36.30  
Sea Level Pressure  
Sea Level Pressure 30.34 in    
Wind  
Wind Speed 7 mph (WSW)    
Max Wind Speed 14 mph    
Max Gust Speed 20 mph    
Visibility 10 miles    
Events      
T = Trace of Precipitation, MM = Missing Value Source: NWS Daily Summary

Daily Weather History Graph

Daily Weather History Graph

Search for Another Location

Airport:

Trip Planner

Search our weather history database for the weather conditions in past years. The results will help you decide how hot, cold, wet, or windy it might be!

Date:

Astronomy

Nov. 28, 2012 Rise Set
Actual Time 6:56 AM CST 4:21 PM CST
Civil Twilight 6:25 AM CST 4:52 PM CST
Nautical Twilight 5:50 AM CST 5:27 PM CST
Astronomical Twilight 5:17 AM CST 6:00 PM CST
Moon 4:36 PM CST 6:53 AM CST
Length of Visible Light 10h 27m
Length of Day
9h 25m
Full, 100% of the Moon is Illuminated
Nov 28
Full
Dec 6
Last Quarter
Dec 13
New
Dec 19
First Quarter
Dec 28
Full

Hourly Weather History & Observations

Time (CST) Temp. Windchill Dew Point Humidity Pressure Visibility Wind Dir Wind Speed Gust Speed Precip Events Conditions
12:51 AM 32.0 °F 24.8 °F 14.0 °F 48% 30.29 in 10.0 mi WSW 8.1 mph - N/A   Overcast
1:51 AM 32.0 °F 23.6 °F 15.1 °F 50% 30.30 in 10.0 mi WSW 10.4 mph - N/A   Overcast
2:51 AM 30.9 °F 23.5 °F 15.1 °F 52% 30.30 in 10.0 mi WSW 8.1 mph - N/A   Mostly Cloudy
3:51 AM 32.0 °F 24.8 °F 16.0 °F 52% 30.31 in 10.0 mi West 8.1 mph - N/A   Mostly Cloudy
4:51 AM 30.9 °F 25.2 °F 16.0 °F 54% 30.32 in 10.0 mi West 5.8 mph - N/A   Partly Cloudy
5:51 AM 30.0 °F 22.4 °F 17.1 °F 59% 30.35 in 10.0 mi West 8.1 mph - N/A   Clear
6:51 AM 28.0 °F 22.8 °F 17.1 °F 63% 30.37 in 10.0 mi West 4.6 mph - N/A   Clear
7:51 AM 30.0 °F 25.2 °F 17.1 °F 59% 30.39 in 10.0 mi West 4.6 mph - N/A   Clear
8:51 AM 33.1 °F 26.9 °F 18.0 °F 54% 30.40 in 10.0 mi WNW 6.9 mph - N/A   Clear
9:51 AM 36.0 °F 31.1 °F 18.0 °F 48% 30.40 in 10.0 mi NW 5.8 mph - N/A   Clear
10:51 AM 39.0 °F 35.7 °F 19.9 °F 46% 30.40 in 10.0 mi WSW 4.6 mph - N/A   Clear
11:51 AM 41.0 °F 37.1 °F 21.0 °F 45% 30.39 in 10.0 mi WSW 5.8 mph - N/A   Partly Cloudy
12:51 PM 44.1 °F 40.1 °F 21.0 °F 40% 30.37 in 10.0 mi West 6.9 mph - N/A   Scattered Clouds
1:51 PM 44.1 °F 38.6 °F 21.0 °F 40% 30.36 in 10.0 mi SW 10.4 mph - N/A   Partly Cloudy
2:51 PM 44.1 °F 39.5 °F 19.9 °F 38% 30.35 in 10.0 mi WSW 8.1 mph - N/A   Partly Cloudy
3:51 PM 43.0 °F 37.2 °F 21.0 °F 42% 30.35 in 10.0 mi WSW 10.4 mph - N/A   Partly Cloudy
4:51 PM 39.9 °F 36.7 °F 21.0 °F 47% 30.35 in 10.0 mi SW 4.6 mph - N/A   Partly Cloudy
5:51 PM 39.9 °F 36.7 °F 21.0 °F 47% 30.35 in 10.0 mi SSW 4.6 mph - N/A   Clear
6:51 PM 37.9 °F 33.5 °F 21.0 °F 51% 30.35 in 10.0 mi South 5.8 mph - N/A   Clear
7:51 PM 39.0 °F 33.4 °F 19.9 °F 46% 30.34 in 10.0 mi South 8.1 mph - N/A   Clear
8:51 PM 36.0 °F 31.1 °F 19.9 °F 52% 30.33 in 10.0 mi South 5.8 mph - N/A   Scattered Clouds
9:51 PM 36.0 °F 31.1 °F 21.0 °F 55% 30.33 in 10.0 mi SSW 5.8 mph - N/A   Mostly Cloudy
10:51 PM 36.0 °F 30.3 °F 21.0 °F 55% 30.31 in 10.0 mi South 6.9 mph - N/A   Overcast
11:51 PM 36.0 °F 29.0 °F 21.9 °F 57% 30.31 in 10.0 mi SSW 9.2 mph - N/A   Mostly Cloudy